Wind_Speed
12 11 10 9 6 4 2 1 1 2 2 3 3 4 4 5 5 5 7 8 8 6 6 7 8 8 7 8 8 7 5 4 1 3 4 4 4 4 4 4 4 4 3 2 1 1 2 3 4 5 6 7 7 8 8 9 9 9 9 8 8 8 8 8 8 8 8 8 7 7 7 8 8 7 8 8 8 7 7 6 6 7 9 12 15
11 10 8 5 3 2 1 1 1 2 2 2 3 4 4 5 5 5 6 7 7 4 5 6 7 7 7 7 7 6 5 3 2 3 5 5 5 5 5 4 4 3 3 2 1 1 2 3 4 6 6 7 8 8 8 7 7 7 7 7 8 8 8 8 8 9 9 8 7 7 7 7 7 7 7 8 8 8 9 9 10 11 12 14 15
9 7 6 4 2 1 0 1 1 1 2 2 3 4 4 4 4 5 6 7 6 4 7 6 6 7 7 6 6 6 5 4 3 3 4 4 4 5 4 3 3 2 1 1 1 2 2 3 4 5 6 7 7 7 6 6 6 6 7 7 8 8 8 9 10 10 10 10 9 9 9 8 8 8 7 8 8 9 10 11 13 14 15 15 16
6 6 5 3 2 1 1 1 1 1 1 2 3 4 3 4 5 6 7 8 7 6 8 8 7 8 8 6 6 5 4 4 3 3 2 3 3 3 4 3 3 2 2 2 2 3 3 4 4 5 5 5 5 5 5 5 6 6 6 7 7 8 8 9 9 10 10 10 10 9 9 8 8 8 8 9 9 10 12 13 14 16 17 17 18
5 4 4 3 3 2 2 2 1 1 1 2 3 4 4 5 5 6 6 6 4 5 7 7 7 9 9 7 7 6 5 4 4 3 2 1 1 2 2 2 2 2 2 3 3 3 4 4 4 4 4 5 5 5 5 6 6 6 7 7 8 8 8 9 9 9 9 9 9 9 8 8 9 9 10 10 11 12 13 14 15 16 18 19 19
5 4 4 4 4 4 3 2 1 1 2 2 2 2 3 4 4 4 5 3 1 4 5 5 7 9 10 9 8 7 6 5 4 3 2 1 0 1 1 2 2 2 2 3 3 3 4 4 4 4 4 5 5 5 5 6 6 7 7 8 8 9 9 9 9 10 10 10 10 9 9 9 10 10 11 12 13 14 15 16 16 17 19 20 18
6 6 5 6 6 5 3 2 1 1 2 1 1 1 2 3 4 5 5 3 2 3 6 6 6 9 10 11 10 9 8 7 6 5 3 2 1 1 2 2 2 3 3 2 2 2 3 3 4 4 4 4 4 4 5 6 7 8 8 9 9 9 10 10 10 11 11 11 11 11 11 11 11 12 12 13 14 15 16 17 17 18 19 18 17
7 7 7 7 6 4 3 2 1 1 1 1 0 0 1 2 5 7 5 3 2 3 6 7 6 7 8 10 10 10 9 8 7 5 3 3 2 2 2 3 3 3 3 2 2 2 1 1 2 3 3 3 4 5 6 7 8 9 10 10 11 11 11 11 11 12 12 13 13 13 13 13 14 14 14 14 15 16 16 17 17 18 18 17 17
8 8 7 6 5 4 3 2 1 1 0 0 1 0 1 3 5 6 5 4 4 4 5 7 7 5 6 8 8 8 8 7 7 5 5 4 4 4 4 4 4 4 3 3 2 2 2 1 1 2 3 3 4 5 6 8 10 11 12 12 13 13 13 13 13 13 14 14 15 15 15 15 16 16 16 16 16 17 17 17 17 17 17 16 17
7 7 7 7 6 5 3 2 1 0 1 1 1 1 2 4 5 5 4 4 5 5 5 6 6 4 3 5 6 6 6 6 5 6 6 5 5 5 5 4 4 4 3 3 2 2 2 2 2 3 3 4 4 5 7 9 11 12 13 14 14 15 15 15 15 15 15 15 15 16 16 16 17 17 17 17 18 18 18 18 18 17 17 16 16
8 7 7 7 7 5 3 2 1 1 0 1 1 1 2 3 5 5 4 4 4 4 5 5 4 5 5 3 2 4 5 4 5 5 6 6 5 5 5 5 4 4 4 3 3 4 3 2 3 3 3 3 4 5 7 9 11 12 13 14 15 16 15 15 15 15 15 15 15 16 16 16 17 17 18 18 18 18 18 18 18 18 17 16 16
8 7 7 7 6 4 3 2 1 1 0 1 2 2 2 4 5 6 5 5 5 3 4 5 3 5 5 3 2 3 5 4 4 5 6 7 7 7 6 6 6 5 4 3 3 4 4 3 3 3 3 4 4 5 7 9 10 12 13 15 16 16 15 14 14 15 15 15 15 16 16 16 17 18 18 19 19 19 18 18 18 17 16 16 17
8 8 8 7 5 3 3 2 2 2 1 0 2 3 3 4 5 5 6 7 7 5 4 5 5 5 3 2 2 2 3 4 4 5 6 7 8 9 8 8 7 5 4 4 3 3 4 3 3 3 4 5 5 5 7 9 10 11 13 14 15 15 15 15 16 16 17 17 17 17 17 17 18 19 19 20 19 18 18 17 17 16 15 16 16
9 9 9 8 6 5 4 3 3 2 2 2 1 3 3 4 4 4 5 8 8 6 5 6 5 4 3 1 1 2 3 4 5 6 6 8 9 8 8 8 7 6 4 4 4 4 4 4 4 4 4 5 6 6 7 8 10 11 12 14 15 15 16 17 18 18 18 19 19 18 18 18 19 20 20 21 20 19 18 16 16 15 14 15 15
10 9 9 8 7 6 5 4 4 3 3 2 0 2 3 4 5 6 5 6 7 7 3 5 5 5 3 2 1 2 3 4 4 5 5 7 9 8 8 7 6 6 6 6 6 6 6 6 6 6 6 6 6 7 7 8 10 12 13 14 15 16 17 18 19 19 19 19 20 19 19 19 20 20 21 22 22 21 19 17 15 15 13 13 14
10 10 10 9 8 7 5 4 4 4 4 2 0 2 4 4 6 7 6 5 5 6 4 2 5 5 2 1 1 2 1 3 4 4 4 4 6 7 7 7 7 8 9 9 9 8 8 9 9 8 8 8 7 7 8 9 11 13 13 15 16 17 17 18 19 19 19 19 20 20 20 20 20 21 21 23 24 23 21 19 16 15 12 11 12
11 10 9 9 8 7 6 5 4 3 3 1 0 2 3 4 6 7 7 7 6 5 6 4 3 3 1 1 1 2 2 2 3 3 3 3 1 3 5 6 8 9 9 10 10 9 9 10 10 10 10 10 10 10 9 10 12 13 14 16 17 17 18 19 19 19 19 20 21 21 21 20 20 21 21 23 23 23 23 20 18 16 12 11 12
12 11 10 8 7 8 7 6 4 4 3 1 1 2 2 3 4 5 5 6 5 5 6 7 6 4 2 0 1 2 2 1 1 2 3 4 3 0 1 3 4 3 5 7 7 7 7 8 9 10 11 11 12 12 12 12 13 14 15 16 16 16 18 19 19 19 19 20 22 23 23 22 20 20 21 22 22 22 23 22 19 17 13 11 13
13 12 10 8 7 7 7 6 5 4 3 1 1 1 2 2 2 3 3 4 4 6 7 6 5 5 4 3 2 1 1 1 1 1 3 2 2 1 1 5 5 2 4 7 7 5 5 6 8 9 9 10 10 11 12 12 13 14 15 15 15 16 18 18 19 19 21 22 24 24 24 23 20 19 20 21 21 21 23 22 20 17 13 11 12
12 11 9 7 8 8 7 6 5 5 3 2 1 1 2 1 1 1 2 3 4 5 7 6 5 5 5 5 4 1 1 1 0 1 2 1 4 3 3 7 6 4 5 7 7 6 5 6 7 8 9 9 10 12 13 13 14 15 15 15 16 17 18 17 19 21 22 24 24 24 23 21 18 17 18 20 20 20 21 22 21 18 13 10 11
11 10 8 7 8 8 8 7 6 5 4 3 2 2 3 2 1 0 0 2 2 3 5 6 5 5 6 6 5 3 2 2 1 2 3 1 2 3 5 8 6 5 6 7 7 7 6 8 9 10 10 10 11 13 15 15 15 15 16 16 17 17 16 17 19 22 23 23 24 24 21 17 16 15 16 18 19 19 19 21 22 19 15 12 10
12 11 10 9 8 9 9 7 6 5 5 4 3 3 3 3 2 2 1 2 3 2 3 4 4 5 6 6 6 5 3 1 1 1 1 1 1 3 5 6 6 7 8 9 9 7 7 9 9 9 9 10 12 13 14 14 14 15 16 18 18 16 15 17 20 22 22 22 24 24 20 17 17 15 14 16 17 17 18 19 21 20 17 13 10
12 12 11 10 9 9 9 8 7 6 6 5 4 4 4 4 3 2 2 3 3 2 2 2 3 4 5 5 5 5 3 1 2 2 1 1 1 3 5 5 6 8 9 11 10 8 8 8 9 9 9 11 12 11 12 12 13 15 16 18 17 14 14 18 20 21 21 22 24 23 19 19 18 16 15 16 16 16 17 18 20 21 19 15 10
13 13 12 11 9 9 8 9 9 7 6 5 5 4 4 5 4 3 3 4 3 3 2 2 4 4 5 4 4 4 3 3 3 3 3 3 1 3 4 5 5 7 10 11 10 9 7 7 9 9 9 10 11 10 10 12 13 14 15 15 14 14 16 18 20 20 19 21 23 21 18 19 20 18 17 17 17 17 16 17 18 19 19 16 11
15 14 13 11 10 10 9 9 9 8 7 6 6 5 5 5 4 4 4 5 4 3 2 2 4 5 6 5 3 3 3 4 4 4 4 3 2 3 4 4 4 6 9 9 11 10 7 8 9 8 8 9 10 10 11 12 13 13 14 14 14 15 17 18 20 20 18 20 23 20 18 20 22 22 18 16 17 17 17 17 17 18 18 17 12
16 15 14 12 11 10 9 9 9 9 8 8 7 6 6 6 5 5 5 6 5 3 3 3 4 5 6 5 4 3 4 5 6 5 3 3 4 3 3 4 4 5 6 8 11 9 7 11 11 8 10 11 10 11 12 12 13 13 15 15 14 16 17 19 20 19 18 20 22 21 20 23 25 23 18 15 15 17 17 17 16 16 16 17 14
16 15 14 12 11 11 10 9 9 9 9 9 8 7 7 7 6 6 6 6 5 4 4 4 4 5 5 6 5 5 5 6 6 5 4 3 4 3 2 3 3 4 5 7 10 9 8 12 13 12 14 14 13 13 13 14 15 15 15 15 15 16 17 20 21 20 19 19 20 20 21 24 25 20 16 16 17 18 18 17 16 15 14 15 14
15 14 13 12 12 12 11 10 9 10 10 10 9 9 8 8 8 7 7 6 6 5 5 5 4 5 6 6 6 6 5 5 5 5 5 4 4 4 4 1 0 2 4 5 6 6 8 12 14 14 16 16 16 15 14 16 17 16 16 15 16 17 19 20 21 20 19 17 16 18 21 24 22 16 15 17 18 17 17 17 16 13 12 13 14
15 14 13 13 12 12 12 11 11 11 11 11 11 10 10 10 9 8 8 7 7 7 6 6 5 6 7 6 6 6 5 5 5 5 6 6 5 5 6 4 2 2 1 2 3 4 7 12 13 14 16 16 17 17 16 18 19 18 17 17 17 18 18 18 20 20 18 16 16 17 20 22 19 16 17 20 19 17 15 15 15 13 10 11 12
15 14 14 14 14 13 13 12 12 12 11 10 10 10 10 10 9 8 7 7 7 7 7 7 7 8 8 7 5 5 5 5 4 5 6 6 7 7 7 6 5 4 4 3 3 4 7 11 13 14 16 17 17 17 17 18 19 19 18 17 17 16 16 17 19 20 20 19 19 19 19 19 18 18 20 22 19 15 14 14 15 14 10 8 10
16 15 15 15 15 14 14 13 13 12 11 10 9 9 10 11 10 8 7 7 8 8 8 8 9 9 9 7 6 5 5 4 3 4 5 6 7 8 8 8 8 7 6 5 2 4 8 12 13 14 15 17 16 17 18 18 19 18 16 15 15 16 17 18 20 21 22 21 21 19 17 17 18 20 20 20 17 14 13 13 14 15 12 7 7
16 15 15 15 15 15 14 13 13 12 11 10 10 10 10 10 10 9 8 8 9 9 9 8 8 9 9 8 6 6 5 5 5 5 6 7 8 8 8 8 8 8 8 6 5 8 13 14 14 14 15 16 16 17 19 18 17 15 14 15 16 17 18 20 22 22 22 21 19 17 15 16 18 18 18 17 15 13 13 13 14 15 13 8 5
15 15 15 15 15 14 14 14 14 13 13 12 11 11 10 10 10 10 10 9 10 10 9 8 8 9 9 9 8 7 6 6 7 7 8 9 9 8 8 8 8 8 9 8 7 10 14 14 14 14 15 15 16 18 18 17 16 14 14 16 18 19 20 22 23 22 20 18 17 15 15 15 16 16 16 15 14 13 13 14 14 14 14 9 5
16 16 15 15 15 15 15 14 14 14 13 13 12 12 12 11 10 10 10 10 10 10 10 10 9 8 9 9 8 8 8 8 9 9 9 8 8 8 8 8 8 8 8 8 7 8 12 15 15 15 14 15 16 17 15 15 15 15 16 18 20 20 22 23 23 20 17 16 15 14 14 15 15 17 17 16 15 15 15 14 14 13 13 10 7
16 16 16 16 16 16 15 15 15 15 14 13 13 13 13 12 11 11 10 10 11 11 11 10 9 9 9 9 9 9 10 10 11 11 11 9 8 8 8 9 9 9 8 8 8 8 10 13 14 15 14 15 15 14 13 13 15 17 19 20 21 21 22 24 22 18 16 16 16 15 15 16 16 17 18 18 18 18 17 17 15 13 12 11 9
17 16 16 16 16 16 16 16 16 15 14 14 13 13 13 13 12 12 11 11 11 11 11 11 10 10 10 10 10 11 11 12 12 12 12 12 10 9 9 9 9 10 9 9 10 9 8 11 13 13 13 14 14 12 13 15 16 18 19 20 21 22 24 24 20 16 16 17 17 16 17 18 17 17 19 19 19 19 18 18 18 15 14 13 10
18 17 17 17 17 18 18 18 17 17 16 15 15 14 14 13 13 13 12 12 12 12 12 12 12 12 12 12 12 12 12 12 12 12 12 12 11 10 10 9 9 10 10 10 10 9 8 10 12 12 12 13 13 13 15 17 19 19 19 19 20 23 26 23 18 16 17 18 19 18 18 19 18 17 19 19 19 19 18 17 16 14 13 12 10
20 19 19 19 20 20 20 19 19 19 18 17 17 16 16 15 14 14 13 12 12 13 13 13 13 13 13 13 14 13 12 12 12 12 12 12 11 11 11 10 10 11 10 10 10 9 9 9 10 11 12 13 14 15 16 16 17 17 19 20 21 23 25 22 18 18 18 18 19 19 19 20 19 18 18 19 19 20 19 17 15 12 11 10 10
22 22 22 22 22 21 21 21 20 20 20 20 19 18 17 16 15 15 14 13 13 14 15 15 14 14 14 14 14 14 13 13 13 13 13 13 13 12 11 10 10 12 12 12 10 9 9 9 9 10 11 12 13 15 15 14 13 14 17 21 23 24 24 21 19 19 18 17 18 18 17 19 20 19 19 19 18 18 19 19 18 15 12 9 8
21 22 23 23 22 22 22 22 22 22 21 21 21 20 18 17 17 16 15 14 15 15 15 15 15 14 14 14 14 14 13 12 13 12 11 11 12 12 11 11 11 12 12 12 10 9 9 9 9 10 11 12 13 13 14 13 14 15 16 18 21 23 22 19 18 18 20 19 17 17 18 20 21 21 20 18 18 18 19 20 21 20 17 13 9
19 20 21 22 22 22 23 23 24 25 25 23 22 21 19 18 17 17 17 16 17 17 17 16 15 14 13 13 13 12 11 10 10 9 10 11 11 11 11 11 11 11 10 9 10 10 10 10 10 10 11 12 13 13 13 13 13 14 15 16 19 21 20 19 17 17 20 20 17 18 20 22 22 22 21 20 20 21 21 21 22 22 21 19 15
15 15 16 17 19 21 22 23 24 25 26 26 24 22 20 20 19 19 19 19 19 19 18 17 16 14 13 12 11 10 10 9 8 8 9 10 11 11 12 11 11 10 10 10 11 11 9 9 10 9 10 12 12 11 11 12 12 14 15 17 19 18 17 18 16 16 19 19 16 17 20 21 22 22 21 22 24 25 23 22 22 21 20 21 20
16 15 14 14 14 15 17 19 22 24 26 26 25 23 21 21 20 20 20 20 21 21 19 18 18 16 14 13 11 9 9 9 9 9 9 10 10 12 12 12 12 11 11 11 10 9 8 8 9 8 9 11 11 9 9 12 13 14 15 16 16 16 15 13 11 12 18 18 15 16 19 20 21 21 20 20 23 26 24 22 21 21 20 20 19
17 16 15 14 13 13 13 13 16 20 23 24 24 22 22 22 21 20 20 21 22 22 22 20 19 18 16 14 12 10 9 10 10 10 10 10 11 12 12 12 12 11 10 9 8 7 7 8 8 8 9 9 8 8 10 12 14 15 15 14 13 13 12 10 9 11 16 15 13 14 16 20 21 19 18 17 19 24 23 21 21 22 21 20 19
14 14 13 12 12 12 12 11 12 14 18 21 22 21 22 22 21 21 20 20 21 22 23 22 21 19 17 15 13 11 11 11 10 10 10 10 11 11 11 11 10 10 10 8 8 8 7 7 8 8 7 6 7 8 10 12 14 14 13 12 12 11 10 8 8 11 14 13 13 12 14 19 21 19 18 15 15 20 22 20 21 23 23 23 21
11 11 11 11 10 10 10 10 10 11 13 16 19 20 21 21 21 21 21 20 20 22 23 24 23 21 19 17 15 13 12 12 12 12 12 12 12 11 9 8 8 9 9 8 8 8 8 8 8 8 6 5 7 10 11 11 12 12 13 13 11 8 6 5 5 8 10 12 14 13 13 18 19 17 17 14 13 17 20 19 19 22 24 24 23
11 11 10 9 9 10 10 10 10 11 13 15 17 19 19 19 19 19 18 18 19 20 22 23 24 23 21 19 17 15 14 13 13 14 14 13 12 10 8 7 7 7 8 7 7 7 8 8 8 8 7 6 8 10 11 11 11 12 12 9 5 2 3 4 5 6 8 11 15 14 12 15 17 16 15 13 12 15 19 18 18 21 24 25 23
11 10 7 6 6 8 9 10 11 12 13 14 15 16 16 17 17 17 18 19 20 20 21 23 24 24 21 19 18 16 15 14 14 14 14 13 11 9 8 8 8 7 7 6 6 7 8 8 8 8 7 7 9 10 9 8 8 7 5 2 5 4 5 6 7 7 8 12 16 15 12 13 16 16 14 11 12 15 19 18 17 20 24 25 23
7 6 7 10 11 11 10 11 12 13 14 14 14 15 15 15 16 16 17 19 21 20 21 22 23 22 21 19 18 16 14 14 13 13 13 11 10 9 8 8 8 8 7 6 6 7 7 7 7 7 8 8 9 8 6 3 3 3 4 6 7 6 7 8 8 7 8 12 16 14 9 11 15 16 13 10 11 15 18 17 17 21 24 24 22
9 8 11 14 14 12 12 12 14 15 16 17 18 18 19 19 18 18 19 20 20 20 20 21 22 21 20 18 17 16 14 13 12 11 10 9 9 9 8 8 8 8 8 8 8 8 8 8 8 7 8 8 8 6 3 1 3 3 4 6 6 7 10 10 8 6 6 11 16 13 8 11 15 15 13 9 7 12 18 17 17 23 24 22 20
9 9 10 11 11 12 13 13 13 14 15 16 17 18 20 22 23 22 22 23 24 23 22 22 21 20 17 16 15 14 13 12 11 9 8 7 8 7 7 7 7 7 8 9 9 9 9 9 8 8 8 6 5 4 3 2 2 3 5 7 6 7 10 11 9 5 3 8 14 12 9 11 15 15 14 9 3 7 16 17 18 22 22 19 18
Wind_Direction
141 141 140 137 130 121 98 67 42 15 354 350 348 356 356 344 341 348 355 350 343 320 271 242 236 238 239 243 241 232 215 207 172 102 109 105 102 98 102 112 120 123 126 124 103 55 3 348 342 338 335 335 331 330 327 323 322 319 321 324 325 329 329 330 330 328 331 331 329 327 324 323 324 325 329 336 342 347 348 343 335 331 330 327 325
141 139 139 134 125 120 78 7 343 343 351 2 357 357 357 350 345 344 346 344 339 305 255 241 236 236 237 237 223 203 192 185 144 118 112 103 97 93 92 99 113 121 126 125 100 13 347 342 342 342 340 340 337 335 334 335 338 342 350 356 356 358 360 359 358 358 356 353 351 349 351 353 351 349 347 347 346 345 341 336 334 331 328 327 325
146 143 142 139 135 123 25 315 319 342 345 2 4 356 357 355 345 338 337 336 330 280 250 251 237 229 233 226 204 189 186 185 173 149 121 101 90 86 80 73 81 82 78 52 18 5 354 348 345 345 345 344 342 344 348 355 1 9 15 18 16 15 16 16 15 13 10 9 7 5 6 6 2 357 350 345 339 334 330 329 329 326 325 325 325
157 152 149 150 152 161 255 275 300 328 322 345 359 352 345 339 337 339 335 326 312 271 254 253 231 220 227 221 205 198 194 196 204 194 150 111 86 78 73 62 60 54 39 16 5 4 359 357 355 353 354 354 357 4 13 17 18 23 25 25 23 21 20 19 19 17 14 12 10 7 3 357 352 346 341 334 328 324 323 324 324 323 323 324 325
169 164 167 176 189 199 197 211 252 299 322 350 353 342 332 331 337 335 327 320 290 253 256 248 221 213 221 225 217 213 212 213 218 213 187 133 88 63 57 47 44 43 37 28 17 10 7 7 7 8 12 18 24 28 30 27 22 20 22 23 20 18 14 13 14 13 11 8 5 2 354 346 340 335 331 326 323 321 320 321 321 321 320 321 327
176 180 187 196 201 193 183 191 230 309 314 336 356 347 336 334 336 334 340 2 154 213 227 216 207 209 216 226 226 225 228 228 225 221 208 173 123 16 7 0 0 8 18 26 21 18 20 18 22 25 28 34 36 34 28 19 13 9 9 13 12 10 6 2 3 2 2 0 357 355 350 345 339 333 330 326 324 322 319 320 320 322 320 321 327
191 196 197 196 194 189 181 183 206 282 282 299 353 1 351 342 340 354 20 62 134 187 196 190 195 206 215 227 231 233 233 232 231 229 224 220 227 323 334 332 333 343 353 2 9 13 27 31 34 37 40 42 35 26 17 7 360 356 355 358 0 359 357 353 351 351 349 349 346 344 343 341 337 334 331 328 326 322 321 320 319 321 321 320 324
198 199 198 194 194 196 191 183 189 222 234 258 278 309 344 354 353 5 38 90 144 175 192 194 193 202 214 223 229 231 230 228 230 231 235 248 263 286 311 324 323 325 331 336 342 341 354 38 35 28 32 33 25 13 6 359 351 347 344 344 347 347 347 345 343 342 340 339 337 336 334 333 333 331 329 327 325 323 322 320 319 318 318 320 324
197 197 196 198 202 198 190 181 179 166 155 269 255 351 1 4 6 14 41 84 129 152 171 185 188 192 210 217 221 225 223 223 229 239 248 264 282 292 308 320 317 311 307 310 315 315 297 274 302 328 342 349 356 357 356 353 347 343 340 338 338 338 338 338 338 337 335 333 332 331 330 329 329 328 327 327 325 324 323 321 319 316 316 320 325
199 199 201 204 204 195 190 186 184 104 86 97 129 54 15 10 19 30 51 83 115 142 149 160 173 169 188 216 224 223 221 227 237 247 259 278 293 298 305 309 309 298 283 291 306 316 310 301 310 312 318 327 336 347 349 348 346 343 341 338 338 337 335 334 335 337 335 333 331 330 330 330 330 329 327 327 326 325 323 322 320 317 316 320 326
205 206 206 202 195 189 188 191 227 263 112 86 90 65 24 19 29 45 66 80 86 133 164 171 175 160 170 198 217 211 212 230 246 256 271 285 295 299 298 291 295 290 273 283 310 326 330 332 340 341 339 338 343 353 352 348 348 347 346 346 345 342 339 338 339 341 340 338 335 332 331 332 333 332 329 328 327 326 324 323 322 319 319 321 327
211 209 206 200 194 188 180 181 222 229 170 66 75 62 34 32 31 45 69 78 74 108 176 205 195 159 167 177 168 203 220 240 256 269 280 282 284 289 291 283 280 284 276 277 306 331 341 349 2 10 4 355 356 0 357 353 352 352 353 353 351 348 346 347 349 349 349 346 342 338 335 335 336 334 333 331 329 328 327 325 323 323 324 324 331
215 211 209 206 201 196 186 187 202 197 210 10 61 52 39 38 29 38 60 70 73 89 145 178 165 147 156 167 158 218 243 259 278 285 284 277 276 281 285 279 269 270 270 271 298 320 333 349 0 6 4 1 1 360 358 357 357 357 355 353 352 351 349 351 354 355 354 353 349 346 343 343 343 341 339 337 336 335 333 331 327 327 328 327 335
216 213 212 211 210 209 204 206 206 207 243 266 26 52 51 49 45 45 51 57 60 72 133 160 147 144 149 108 24 314 277 282 293 293 292 280 277 282 280 269 256 256 264 273 299 310 316 330 337 345 350 356 3 2 359 359 359 357 353 351 351 350 350 349 352 354 354 354 353 351 350 351 352 350 350 348 347 344 341 340 336 333 333 333 341
213 212 214 215 218 221 216 217 223 236 240 240 305 68 69 61 54 49 47 53 53 56 111 172 168 155 133 61 6 350 322 309 290 281 302 289 273 274 271 263 251 258 272 283 299 308 310 313 318 328 336 344 356 1 360 357 358 356 352 351 350 350 350 349 350 351 351 352 352 351 351 353 354 355 358 358 355 353 350 348 345 341 339 341 344
208 211 216 219 224 225 221 219 224 231 220 204 174 94 84 69 58 51 49 53 49 46 58 152 183 169 113 63 78 47 334 316 312 288 319 312 265 255 257 268 269 269 280 288 295 302 305 306 310 315 322 328 332 339 348 349 350 352 351 352 352 351 352 350 350 351 350 349 349 348 349 351 354 355 360 3 1 359 356 354 352 348 348 349 346
208 209 213 219 224 224 225 228 223 212 200 195 186 119 86 70 59 50 47 51 48 48 59 78 136 157 102 120 66 20 242 279 334 303 338 22 330 251 258 284 287 277 285 294 295 296 300 305 310 313 315 320 321 321 327 334 340 345 348 352 352 351 352 350 350 352 351 350 347 346 346 348 351 352 357 2 4 4 1 358 356 353 355 357 355
209 207 209 217 223 223 225 230 225 209 200 204 179 135 92 74 58 43 42 48 53 68 79 82 87 79 51 297 285 284 238 291 27 284 337 33 67 134 279 356 345 298 313 330 319 303 300 306 312 316 316 319 322 319 318 325 333 338 344 351 352 349 348 348 350 353 353 352 349 346 345 345 346 347 351 357 4 6 4 1 359 358 0 0 359
208 207 211 217 221 224 224 225 223 217 216 206 166 153 130 88 51 40 48 52 60 72 77 80 80 64 41 14 339 224 205 35 132 249 337 12 30 37 43 16 19 12 356 1 359 343 322 321 322 323 325 328 332 331 328 329 334 339 345 348 348 345 344 346 351 355 354 354 351 348 347 346 344 342 344 350 359 5 5 4 2 1 2 360 1
204 207 215 222 226 225 225 227 219 216 224 228 251 209 183 155 36 25 47 51 57 62 62 62 61 57 51 36 28 87 138 8 116 127 122 224 328 339 338 347 2 20 4 359 3 360 346 341 339 338 340 344 346 345 343 342 342 345 348 346 343 342 343 347 353 356 356 356 355 352 351 350 348 342 338 343 353 1 5 5 5 4 4 6 7
205 212 221 233 235 228 228 230 221 218 224 235 262 239 201 194 219 269 323 20 30 40 47 47 49 53 51 40 35 41 43 47 101 122 120 139 293 294 322 338 346 3 5 356 351 351 349 345 340 341 347 351 350 346 346 347 349 348 349 348 344 343 346 351 356 0 2 3 3 1 358 357 358 352 341 339 346 356 2 5 7 7 7 12 14
213 218 225 235 237 231 228 224 221 223 223 231 249 241 217 214 238 254 280 328 338 350 21 35 43 51 41 30 27 23 15 39 68 78 90 99 252 278 315 334 326 328 344 349 344 339 342 345 347 355 4 2 353 344 343 346 347 345 346 346 344 344 350 357 1 5 7 8 8 6 5 5 5 4 355 346 346 352 358 2 7 10 9 14 19
222 223 224 232 234 231 227 219 216 221 224 234 243 242 240 241 250 262 296 314 315 313 324 5 25 30 24 18 21 20 6 327 331 325 299 291 282 294 313 333 320 317 335 344 339 332 331 343 358 7 10 4 356 349 344 342 342 343 344 345 347 351 358 360 3 6 7 10 9 6 7 10 10 9 4 356 350 351 354 358 3 9 11 14 20
223 224 223 229 232 227 224 219 215 218 224 233 239 244 248 245 249 269 301 308 305 309 309 331 356 1 2 359 4 11 12 359 334 312 289 275 279 295 313 338 323 313 334 341 339 339 337 343 353 359 360 359 2 0 349 343 346 348 347 351 358 3 2 360 2 6 8 12 12 8 9 13 12 10 6 0 355 352 352 353 358 5 9 12 17
218 222 226 233 234 228 227 224 220 225 231 237 240 244 245 243 255 278 289 295 295 303 314 335 351 353 350 346 341 346 359 3 352 333 304 281 312 320 312 327 302 301 328 339 345 353 0 0 0 3 3 0 5 6 357 353 357 358 356 359 4 3 1 359 359 3 8 10 11 12 12 12 8 5 3 1 358 356 353 351 352 358 5 10 13
220 226 231 236 238 233 232 231 229 234 242 244 243 241 247 251 257 264 270 276 275 284 307 321 338 345 345 345 341 328 328 338 345 346 331 300 322 333 328 330 304 297 324 338 345 352 1 4 12 20 13 8 7 2 359 0 1 360 357 355 358 0 360 359 358 359 0 0 3 8 9 7 3 360 1 4 4 3 358 352 350 352 359 6 10
226 231 233 234 235 231 232 235 236 240 244 246 246 245 251 253 250 248 253 261 260 269 294 304 315 329 337 340 335 325 316 322 330 337 337 319 320 322 331 356 337 314 328 338 344 347 349 359 10 16 13 10 7 2 359 1 360 355 352 351 354 356 354 355 356 355 354 352 355 2 2 359 359 2 10 14 9 6 3 358 353 351 353 1 6
232 234 234 233 230 229 232 237 239 241 244 248 252 252 254 254 249 246 250 256 259 266 279 287 296 307 317 327 330 327 316 309 309 317 323 319 318 313 301 308 3 322 330 333 336 341 349 356 1 5 8 9 8 9 7 5 6 2 358 355 354 353 354 358 360 358 357 354 354 358 356 355 359 7 11 10 5 360 360 1 359 356 353 355 1
235 236 236 233 232 234 237 240 240 242 246 250 253 254 255 253 249 251 257 262 263 263 269 276 282 288 294 303 317 325 318 305 297 303 314 309 306 310 304 290 255 223 279 322 305 300 337 351 351 352 2 7 8 11 11 10 11 8 3 360 358 1 6 11 12 11 10 8 3 358 354 355 1 4 359 357 358 355 355 1 4 3 359 354 357
235 237 236 234 236 238 241 242 243 245 246 246 251 253 250 247 249 256 260 261 260 257 262 270 277 283 284 283 294 315 320 311 297 296 309 308 302 303 299 291 282 249 220 248 285 284 318 341 343 343 352 0 4 8 8 8 7 4 4 6 10 16 18 16 13 10 8 7 1 354 353 354 356 354 351 351 354 355 356 3 8 9 6 357 356
235 235 234 234 237 240 242 242 244 246 244 244 250 251 245 244 249 256 259 261 263 260 261 267 276 285 284 276 284 307 317 310 303 303 307 310 310 307 300 290 288 279 254 234 248 290 304 322 333 341 350 352 359 4 2 0 3 5 11 18 20 19 14 8 3 358 355 355 353 349 349 350 347 346 347 350 354 358 1 7 11 11 10 6 1
237 236 234 234 237 241 243 243 243 243 240 242 248 246 243 245 246 250 255 260 263 265 268 272 277 286 288 283 290 308 314 305 303 306 304 305 310 310 308 301 292 285 273 246 240 283 301 314 324 339 349 349 355 1 356 355 4 14 21 21 16 10 3 359 357 353 350 348 346 344 344 346 349 352 356 358 359 0 5 11 12 9 10 13 15
240 238 238 237 238 241 241 241 243 242 240 243 245 241 242 247 249 252 257 260 261 263 272 281 287 292 293 290 292 298 303 301 300 303 302 301 305 305 302 300 296 288 279 267 260 282 304 318 324 332 345 349 352 357 356 358 6 12 13 10 6 2 359 357 356 354 351 349 347 347 349 355 2 7 10 10 7 4 6 8 5 4 9 16 30
242 241 243 244 241 240 241 242 244 243 243 246 247 244 244 248 252 256 259 260 260 262 271 282 292 295 291 286 285 286 288 288 286 289 293 295 301 302 292 285 290 292 285 278 270 275 297 314 322 329 341 349 350 354 359 3 4 360 357 357 357 358 359 360 358 357 360 2 3 5 8 14 18 20 24 28 26 19 13 8 2 359 6 19 35
242 241 245 247 244 242 244 246 247 246 245 246 247 247 248 249 251 254 256 257 259 262 268 277 288 291 286 281 280 284 286 282 278 281 288 293 296 297 290 285 289 294 294 286 275 272 288 305 317 325 337 347 349 350 355 357 355 352 349 349 352 356 0 2 3 6 12 16 16 20 24 26 28 32 36 40 37 32 28 24 18 13 16 27 35
240 243 246 248 247 245 246 249 249 247 244 243 244 247 250 252 253 254 256 257 258 262 265 270 279 284 283 278 277 281 283 282 282 285 288 289 290 290 287 285 288 293 299 294 283 278 284 295 309 321 334 342 343 345 346 345 344 344 344 346 351 357 1 5 11 17 21 22 24 28 33 35 37 37 37 36 34 33 31 30 31 32 31 30 27
241 246 249 250 250 249 249 249 247 244 242 242 245 247 250 253 254 254 255 257 259 263 266 269 273 277 278 277 276 280 282 282 283 286 287 286 286 286 282 279 286 294 297 292 286 280 279 288 302 317 330 334 335 338 342 341 339 339 340 344 353 359 1 9 22 25 22 25 28 30 34 38 38 34 30 28 26 26 24 24 28 33 32 25 19
244 247 249 252 254 252 250 248 246 245 245 245 247 250 251 252 253 254 255 258 262 265 268 269 271 272 274 276 278 278 278 282 286 286 285 283 283 283 280 279 288 296 292 286 280 273 273 286 299 311 323 329 332 335 339 341 340 340 342 345 352 359 2 10 23 25 22 25 29 30 31 32 30 25 22 20 21 23 23 21 19 18 17 15 12
244 247 250 253 256 254 250 247 246 248 249 250 251 252 253 252 252 253 254 258 263 268 270 270 270 271 272 274 278 277 274 278 285 286 282 281 281 279 279 283 292 296 290 281 272 264 270 287 300 310 319 326 331 333 336 340 342 347 351 348 348 355 2 10 18 20 18 20 26 29 26 23 21 17 14 16 23 29 30 29 26 20 13 6 1
249 252 254 255 256 253 250 248 249 249 251 252 252 252 252 251 251 252 254 257 262 268 271 270 270 273 272 272 273 272 272 275 282 286 286 287 285 278 275 282 291 292 285 273 265 264 275 290 302 312 317 322 330 335 338 346 350 351 354 349 343 348 358 9 19 22 16 15 24 29 21 17 17 14 13 21 33 38 36 34 32 29 27 23 14
253 255 255 254 254 253 252 253 253 252 251 252 252 251 250 249 251 253 255 257 260 265 269 270 272 273 271 271 270 268 269 272 276 281 283 286 287 281 277 282 287 285 275 265 265 271 282 293 303 313 317 322 333 339 342 352 354 348 347 344 341 345 353 4 20 28 17 13 24 33 25 20 20 22 26 35 42 41 37 34 32 32 33 34 34
242 246 248 249 250 253 255 257 257 256 253 252 252 251 248 250 253 254 256 258 259 262 265 266 270 271 271 271 270 264 260 259 261 264 270 276 280 280 282 284 283 275 262 262 271 277 286 297 304 314 317 320 332 340 340 346 348 343 341 338 338 343 352 1 14 24 18 14 22 31 27 22 22 28 38 44 44 41 39 39 39 37 36 37 37
236 240 243 246 249 253 257 258 257 256 253 251 251 249 246 248 253 255 256 258 259 260 261 262 265 268 268 267 262 254 249 250 253 256 262 270 273 275 276 275 273 267 256 257 267 275 287 296 302 310 313 315 325 335 337 338 338 336 335 334 336 340 349 355 358 6 11 13 17 23 25 20 20 28 40 44 43 42 43 44 42 41 39 38 37
235 238 241 245 249 254 260 263 261 255 250 248 247 245 242 243 248 253 257 258 259 259 259 260 261 261 260 258 252 244 243 247 255 262 266 270 272 274 272 265 262 261 255 253 258 266 281 289 293 303 308 312 319 326 332 332 329 329 330 333 335 336 340 345 342 353 7 13 14 18 22 19 17 23 33 39 41 42 43 41 38 36 35 33 33
227 230 232 237 242 248 254 260 265 259 251 248 245 242 241 242 245 250 254 258 260 261 260 258 256 253 250 247 241 237 241 249 260 270 274 274 272 273 272 264 257 253 247 246 251 259 268 274 280 291 298 304 309 315 323 324 322 324 326 328 328 327 331 340 351 5 14 18 17 16 18 17 14 16 22 32 43 41 37 35 31 28 28 29 29
221 227 231 234 237 244 249 252 255 257 256 252 246 242 242 244 249 252 255 258 261 263 262 257 250 245 244 240 235 236 245 255 265 272 274 273 271 270 269 262 251 244 241 243 251 255 256 259 268 278 280 285 295 305 315 317 318 320 317 315 317 320 334 358 21 32 30 23 17 14 12 12 13 14 16 27 45 41 34 34 28 22 24 27 29
231 237 242 244 243 243 246 248 250 251 254 254 251 249 247 247 249 251 253 260 267 268 263 254 245 242 242 236 231 234 244 255 265 270 270 270 269 264 260 254 243 237 236 241 247 252 253 257 264 272 273 277 290 301 310 314 316 315 310 309 321 348 36 44 52 54 40 22 14 12 8 10 16 19 18 30 50 40 32 35 30 20 20 23 26
245 246 250 266 276 270 258 253 250 247 247 250 250 252 251 248 251 251 249 255 263 267 263 252 243 238 234 228 228 236 245 253 260 265 266 265 262 253 245 240 236 235 240 249 255 257 259 262 265 269 269 276 289 300 310 320 329 325 321 55 84 83 71 58 49 46 37 21 14 11 8 14 23 24 21 37 53 36 30 38 33 18 16 18 22
286 287 276 270 274 279 270 258 250 245 246 248 248 251 251 246 250 257 256 252 251 252 252 247 237 230 226 226 231 238 243 246 250 255 259 258 250 241 236 233 238 248 253 255 255 254 255 255 256 260 268 278 288 293 303 342 32 51 77 91 88 77 69 61 44 33 33 25 17 15 16 21 26 26 24 41 56 36 28 37 32 16 13 19 27
279 284 278 268 262 262 260 253 248 246 250 252 252 252 251 249 254 262 264 259 250 241 238 235 230 227 225 227 232 235 234 236 238 242 247 247 241 238 237 236 243 251 251 246 242 241 244 246 248 257 271 280 280 272 258 103 80 69 68 83 89 79 71 64 44 27 35 27 20 22 32 28 26 31 30 36 55 38 29 33 26 15 17 26 36
278 282 284 276 262 255 253 251 251 252 256 259 259 258 256 259 266 266 260 257 252 244 237 234 232 229 224 220 222 224 223 222 223 222 224 233 244 247 246 246 246 245 242 241 242 242 244 247 253 264 272 271 257 231 195 136 88 75 80 87 86 75 70 63 49 42 44 21 18 28 47 35 31 39 37 30 39 23 20 25 24 19 25 35 38
Height
854 855 855 856 856 857 857 857 857 858 858 858 859 859 859 858 858 858 858 857 856 856 856 855 855 855 855 855 855 854 854 854 854 854 854 854 853 853 853 853 852 852 852 852 852 852 852 852 852 851 851 850 850 849 848 848 847 846 845 845 844 843 843 842 842 841 840 839 837 836 835 834 833 832 832 831 830 830 830 831 830 829 828 825 823
855 855 856 856 857 857 857 858 858 858 858 859 859 859 859 859 859 858 858 857 856 856 855 855 855 855 855 855 854 854 855 855 855 855 855 855 854 854 854 853 853 853 852 852 852 852 852 852 852 852 851 851 850 849 849 848 847 846 845 844 844 843 842 842 841 840 839 838 837 836 835 834 833 832 831 830 830 829 829 829 828 828 827 825 823
856 856 857 857 857 858 858 858 858 858 859 859 859 859 859 859 859 858 858 857 856 856 855 855 855 856 855 855 855 855 855 855 856 856 856 855 855 855 854 854 854 853 853 853 853 853 853 852 852 852 851 851 850 850 849 848 847 846 846 845 844 843 843 842 841 840 840 838 837 836 835 834 833 832 831 830 829 829 828 828 827 826 825 824 822
857 857 857 858 858 858 858 859 859 859 859 859 859 859 859 859 859 858 858 857 856 855 855 855 855 856 855 855 855 855 855 856 856 856 856 856 856 855 855 855 854 854 854 854 853 853 853 853 853 852 852 851 851 850 849 848 848 847 846 845 844 844 843 842 842 841 840 839 838 837 836 835 834 833 831 830 829 828 827 827 826 825 823 822 821
857 858 858 858 859 859 859 859 860 860 860 860 860 860 859 859 859 858 858 856 855 855 855 855 856 856 856 855 855 856 856 856 857 857 857 856 856 856 856 855 855 855 854 854 854 854 854 853 853 853 852 852 851 850 850 849 848 847 846 845 845 844 843 842 842 841 840 839 838 837 836 835 834 833 831 830 829 828 827 826 825 823 822 821 819
858 859 859 859 859 860 860 860 860 860 860 860 860 860 860 859 859 858 857 856 855 855 855 855 855 856 856 856 855 856 856 856 857 857 857 856 856 856 856 856 855 855 855 855 855 854 854 854 854 853 853 852 851 851 850 849 849 848 847 846 845 844 843 843 842 841 840 839 838 837 836 835 834 832 831 830 829 827 826 825 824 822 821 819 818
859 859 859 860 860 860 860 860 861 861 861 861 860 860 860 860 859 858 857 856 855 855 855 855 855 856 856 856 855 856 856 856 857 857 857 857 856 856 856 856 856 856 855 855 855 855 855 854 854 854 853 853 852 851 850 850 849 848 847 846 845 844 843 842 841 840 839 838 837 836 835 834 833 832 831 830 828 827 825 824 823 821 820 818 816
859 860 860 860 861 861 861 861 861 861 861 861 861 861 860 860 859 858 857 856 855 855 855 855 855 856 856 856 856 856 856 856 856 857 857 857 857 857 857 857 856 856 856 856 855 855 855 855 854 854 853 853 852 851 851 850 849 848 847 846 845 844 843 842 841 840 839 838 837 836 835 834 833 832 830 829 828 826 824 823 821 820 818 816 815
860 860 861 861 861 861 862 862 862 862 862 862 861 861 860 860 859 858 857 856 856 856 856 856 856 856 856 856 856 856 856 856 857 857 857 857 857 857 857 857 857 856 856 856 856 855 855 854 854 854 853 853 852 852 851 850 849 848 847 846 845 844 843 842 840 839 838 837 836 835 834 833 832 831 829 828 827 825 823 822 820 819 817 815 814
860 861 861 862 862 862 862 862 862 862 862 862 861 861 860 860 859 858 857 857 856 856 856 857 857 857 857 857 856 856 857 857 857 857 858 858 857 857 857 857 857 857 856 856 856 855 855 854 854 854 853 853 852 851 851 850 849 848 847 845 844 843 842 841 840 839 838 836 835 834 833 832 831 830 828 827 826 824 822 821 819 817 815 814 812
861 861 861 862 862 862 863 863 863 863 863 862 862 861 861 860 859 858 858 857 857 857 857 857 857 858 858 857 857 857 857 858 858 858 858 858 858 857 857 857 857 856 856 856 856 855 855 854 854 853 853 853 852 851 851 850 849 848 846 845 844 843 842 840 839 838 837 836 834 833 832 831 830 829 827 826 824 823 821 819 818 816 815 813 811
861 862 862 862 862 863 863 863 863 863 863 863 862 862 861 861 860 859 858 858 858 858 857 858 858 858 858 858 858 858 858 858 858 858 858 858 858 858 857 857 857 856 856 856 856 856 855 855 854 854 853 852 852 851 851 850 849 847 846 845 844 843 842 840 839 838 836 835 834 833 831 830 829 828 826 825 823 821 819 818 816 815 814 812 811
862 862 862 862 862 863 863 863 863 863 863 863 863 863 862 861 860 860 859 859 859 858 858 858 858 858 859 859 859 859 859 859 858 858 858 858 857 858 858 857 857 856 856 856 856 856 855 855 854 854 853 853 852 851 851 850 849 847 846 845 844 843 842 840 839 837 836 835 833 832 831 829 828 827 825 823 821 819 818 816 814 813 812 811 810
862 862 862 862 863 863 863 864 864 864 864 864 864 863 863 862 861 861 860 860 859 859 859 859 859 859 860 860 860 860 859 858 858 858 858 858 857 857 857 857 857 857 856 856 856 856 856 855 855 854 853 853 852 851 851 850 849 848 846 845 844 843 841 840 838 837 836 834 833 831 830 828 827 826 824 822 820 818 816 814 813 811 811 810 809
862 862 862 863 863 863 864 864 864 864 864 864 864 863 863 862 862 861 861 861 860 860 860 859 860 860 860 862 862 862 861 859 858 858 858 857 857 857 857 857 857 857 857 856 856 856 856 855 855 854 853 853 852 851 851 850 849 847 846 845 844 843 841 840 838 837 835 834 832 831 829 828 826 825 823 821 819 817 815 813 812 810 809 809 808
862 862 863 863 863 864 864 864 864 864 864 864 864 864 863 863 862 862 862 861 861 861 860 860 860 860 861 863 864 865 866 862 858 858 858 857 857 857 857 857 857 857 857 856 856 856 856 855 855 854 853 853 852 851 850 850 849 847 846 845 844 842 841 839 838 836 835 833 832 830 829 827 826 825 823 821 819 817 815 813 811 809 808 808 807
862 862 863 863 863 864 864 864 864 864 864 864 864 864 864 864 863 863 863 862 862 861 861 860 861 860 861 863 865 867 867 862 860 859 858 857 857 857 857 857 857 857 857 856 856 856 855 855 854 854 853 853 852 851 850 849 848 847 846 845 843 842 841 839 837 836 834 833 831 830 828 827 826 824 822 821 819 817 815 813 811 809 808 807 807
862 862 863 863 863 864 864 864 864 864 864 864 864 864 864 864 864 864 863 863 862 862 862 861 861 861 861 862 863 865 863 861 863 863 859 857 857 857 858 858 857 857 857 856 855 855 855 854 854 854 853 852 851 850 850 849 848 847 846 844 843 842 840 839 837 835 834 832 831 829 827 826 825 824 822 821 819 817 815 813 811 809 807 807 807
861 862 862 863 863 863 864 864 864 864 864 864 864 864 865 864 864 864 864 863 863 862 862 862 862 862 861 861 861 861 861 861 862 864 863 861 858 858 858 858 857 857 856 856 855 855 854 854 854 853 852 852 851 850 849 848 847 846 845 844 843 842 840 838 837 835 833 832 830 828 826 825 824 823 822 820 819 817 815 813 811 809 807 807 806
860 861 861 862 862 863 863 863 864 864 864 864 864 864 865 865 865 864 864 864 863 863 863 863 862 862 862 862 861 861 861 861 861 862 864 864 861 858 858 857 857 857 856 856 855 855 854 854 853 853 852 851 851 850 849 848 847 846 845 844 843 842 840 838 837 835 833 831 829 827 825 824 823 822 821 820 819 817 815 813 811 809 807 807 806
860 860 861 861 862 862 863 863 863 863 864 864 864 864 864 865 865 864 864 864 864 864 863 863 863 863 862 862 862 862 861 861 861 861 861 864 863 860 858 857 856 856 856 856 855 855 854 854 853 852 852 851 850 849 848 847 846 846 845 844 843 841 840 838 837 835 833 831 829 827 824 823 821 821 820 819 818 817 815 814 811 809 807 807 806
859 860 860 861 861 862 862 862 863 863 863 863 864 864 864 864 864 864 864 864 864 864 864 863 863 863 863 863 862 862 862 861 861 861 860 861 862 860 859 858 857 856 856 856 855 855 854 854 853 852 851 851 850 849 848 847 846 845 845 843 842 841 840 838 836 835 833 831 829 826 824 823 821 820 819 818 817 817 815 814 812 809 808 807 806
859 859 860 860 861 861 861 862 862 862 863 863 863 864 864 864 864 864 864 864 864 864 864 864 864 863 863 863 862 862 862 862 861 861 860 860 861 860 859 859 858 857 856 856 855 854 854 853 853 852 851 851 850 848 847 847 846 845 844 843 842 840 839 838 836 834 833 831 829 827 825 823 822 821 819 818 817 816 815 814 812 810 808 807 806
859 859 859 860 860 861 861 861 862 862 862 862 863 863 863 864 864 864 864 864 864 864 864 864 864 863 863 863 862 862 862 862 861 861 860 860 860 860 859 859 858 857 856 856 855 854 853 853 852 852 851 850 849 848 847 846 846 845 844 843 841 840 839 838 836 834 833 831 829 827 826 824 822 821 819 818 817 816 815 813 812 810 808 807 806
857 858 858 859 860 860 861 861 861 862 862 862 863 863 863 863 863 864 864 864 864 864 864 864 864 863 863 862 862 862 862 861 861 861 860 860 860 860 859 859 858 857 857 856 855 854 853 853 852 851 851 850 848 847 847 846 845 844 843 842 841 840 839 837 836 834 833 831 830 828 826 824 823 821 819 818 816 815 814 813 812 810 808 807 806
856 857 858 858 859 859 860 860 861 861 861 862 862 862 863 863 863 863 863 863 864 864 864 864 864 863 863 862 862 862 862 861 861 861 860 860 860 860 860 859 859 857 857 856 855 854 853 853 852 851 850 849 848 847 847 846 845 844 843 842 841 840 838 837 835 834 832 831 829 828 826 824 822 821 819 817 816 815 814 812 811 810 809 807 807
856 856 857 857 858 858 859 859 860 861 861 861 862 862 862 862 862 862 863 863 863 863 863 863 863 863 863 862 862 862 862 861 861 861 860 860 860 860 860 860 860 859 857 856 855 854 853 853 852 851 850 849 848 847 847 846 845 844 843 842 840 839 838 836 835 833 832 830 829 828 826 824 823 821 819 817 816 815 813 812 811 810 809 808 807
855 856 856 857 857 858 858 859 859 860 861 861 861 862 862 862 862 862 862 863 862 862 862 862 862 862 862 862 862 861 861 861 861 861 860 860 860 860 860 860 861 861 859 857 856 854 854 852 851 851 850 849 848 847 847 846 845 843 842 841 840 838 837 836 834 833 831 830 829 828 826 825 823 821 819 818 816 814 813 812 810 809 809 808 807
855 855 856 856 857 857 857 858 859 859 860 860 861 861 861 861 861 862 862 862 862 862 862 862 862 862 861 861 861 861 861 861 860 860 860 860 860 860 860 859 859 861 861 861 858 854 853 853 852 851 850 849 848 847 846 845 844 843 841 840 839 838 837 836 834 833 831 830 829 828 826 824 823 821 819 818 816 814 813 811 810 809 808 808 807
854 854 855 855 856 857 857 857 858 858 859 859 860 860 860 861 861 861 861 861 861 861 861 861 860 860 860 860 860 860 860 860 860 860 860 860 860 859 859 859 858 858 859 861 859 855 853 853 852 851 850 849 848 847 846 845 844 842 841 840 839 838 837 836 834 833 831 830 828 827 826 824 822 821 819 817 815 814 812 811 810 809 808 808 807
853 854 854 855 855 856 856 857 857 858 858 859 859 859 859 860 860 860 860 860 860 860 860 860 859 859 859 859 859 859 859 859 859 859 859 859 859 859 859 858 858 858 857 859 859 855 853 853 852 851 850 849 848 847 845 845 843 842 841 840 839 838 837 836 834 833 831 830 828 826 825 823 822 820 818 817 815 813 812 810 809 808 807 807 807
853 853 854 854 854 855 855 856 856 857 857 858 858 858 858 859 859 859 859 859 859 859 859 859 859 859 858 858 859 859 859 859 859 859 859 859 859 858 858 858 857 858 857 857 857 855 853 853 852 851 850 849 848 847 845 844 843 842 841 840 839 838 837 835 834 832 830 829 827 825 824 822 821 819 818 816 814 813 812 810 809 808 807 807 807
852 852 853 853 853 854 854 855 856 856 856 857 857 857 858 858 858 858 858 858 858 858 858 858 858 858 858 858 858 858 858 858 858 858 858 857 857 857 857 857 856 857 856 856 855 853 852 852 852 851 850 849 847 847 845 844 843 842 841 840 839 838 837 835 833 832 830 828 826 824 823 822 820 819 817 816 814 813 811 810 809 808 807 806 806
851 851 852 852 853 853 853 854 855 855 856 856 856 856 856 857 857 857 857 857 857 857 857 858 858 858 858 857 857 857 857 857 856 856 856 856 856 856 856 856 855 855 855 854 854 853 852 851 851 850 850 849 848 847 845 844 843 842 841 841 839 838 837 835 833 831 829 827 826 824 823 822 820 819 817 815 814 812 811 809 808 807 806 806 806
850 850 851 851 851 852 853 853 854 854 855 855 855 855 855 855 855 856 856 856 856 857 857 857 857 857 856 856 856 856 856 855 855 855 855 855 855 854 854 855 854 854 854 853 853 852 851 850 850 850 849 849 848 847 846 845 844 842 841 840 839 838 836 834 832 830 829 827 826 824 823 821 820 819 817 815 814 812 811 809 808 807 806 806 806
849 849 849 850 850 851 851 852 852 853 853 853 854 854 854 854 854 854 855 855 855 856 856 856 856 856 855 855 855 855 854 854 854 854 854 854 854 853 853 853 853 853 852 852 852 852 851 850 849 849 848 848 847 846 845 844 843 842 841 840 839 838 836 834 832 830 829 827 826 825 823 822 820 819 817 816 814 813 811 810 808 807 806 806 806
847 848 848 848 849 849 850 850 851 851 852 852 852 853 853 853 853 853 853 854 854 854 854 854 854 854 854 854 854 853 853 853 853 852 852 852 852 852 852 852 852 852 851 851 851 851 850 849 848 848 848 847 846 846 845 843 842 841 840 840 839 837 835 834 832 830 829 827 826 825 823 822 820 819 818 816 815 813 812 810 809 808 807 807 807
846 846 847 847 847 848 848 848 849 849 850 850 851 851 851 852 852 852 852 853 853 853 853 853 853 853 853 852 852 852 852 852 852 851 851 851 851 851 850 850 850 850 850 850 850 850 849 849 848 847 847 846 845 845 844 843 842 840 839 838 838 837 835 833 831 830 828 827 826 825 823 822 821 819 818 817 815 814 812 811 810 809 808 808 807
845 845 845 846 846 846 846 846 847 847 848 848 849 849 850 850 850 851 851 851 851 851 851 851 851 851 851 851 851 851 851 850 850 850 850 849 849 849 849 849 849 849 849 849 849 849 848 848 848 847 846 845 845 844 843 842 841 840 839 837 836 835 834 833 831 830 828 827 826 825 824 823 821 820 818 817 816 814 813 812 811 809 809 808 807
843 843 843 844 844 844 845 845 845 845 846 846 847 847 848 848 849 849 849 850 850 850 850 850 850 850 849 849 849 849 849 849 849 848 848 848 848 848 848 848 848 848 847 848 848 848 848 847 847 846 845 845 844 843 842 841 841 840 839 838 836 835 834 833 832 830 828 827 826 825 824 822 821 819 818 817 816 815 814 813 812 810 809 808 808
841 841 841 842 842 842 842 842 843 843 844 844 845 845 846 847 847 847 848 848 848 848 848 848 848 848 848 848 847 847 847 847 847 847 847 847 846 846 846 846 847 846 846 847 847 847 847 846 846 845 845 844 843 843 842 841 841 840 839 838 837 835 834 833 832 831 829 828 827 825 824 823 822 820 818 817 817 816 815 813 813 812 811 809 808
839 839 839 840 840 840 840 840 841 841 841 842 843 843 844 845 845 845 846 846 846 846 846 846 847 847 846 846 846 846 846 846 846 846 845 845 845 845 845 845 845 845 845 846 846 846 846 845 845 845 844 843 843 843 842 841 841 840 839 838 837 835 834 833 832 831 830 829 827 826 825 824 823 821 820 819 818 817 816 815 814 813 812 811 809
837 837 838 838 838 838 838 838 839 839 839 840 840 841 842 843 844 844 844 844 844 844 844 845 845 845 845 845 845 845 844 844 844 844 844 844 844 844 844 844 844 844 844 844 845 845 845 844 844 844 844 843 843 842 842 841 840 840 839 838 836 835 834 834 833 831 830 829 828 827 826 825 824 822 821 820 820 818 817 817 816 814 813 812 811
835 835 836 836 836 837 837 837 837 837 837 838 838 839 840 841 842 842 842 843 842 842 842 842 843 843 843 844 844 844 843 843 843 843 843 843 842 842 842 842 843 843 843 843 843 844 844 844 844 843 843 843 842 842 841 840 840 839 838 837 836 835 834 834 833 832 831 830 829 827 827 825 824 823 822 821 821 820 819 818 817 815 814 813 811
834 833 833 834 834 835 835 835 836 836 836 836 837 838 838 839 840 840 840 841 841 840 840 840 840 841 841 842 842 842 842 842 842 842 841 841 841 841 841 841 841 841 841 842 842 842 842 842 842 842 842 842 841 841 841 840 839 838 837 836 835 835 834 834 833 833 832 830 829 828 827 826 825 823 822 822 822 821 820 819 818 817 815 814 812
832 831 832 832 833 833 834 834 835 835 835 835 836 836 837 837 838 838 838 838 838 838 838 837 838 838 839 839 840 840 841 841 840 840 840 840 840 840 839 839 839 840 840 840 841 841 841 841 841 841 841 841 840 840 839 839 838 837 836 835 834 834 833 833 833 833 832 830 829 828 827 826 825 824 823 822 822 822 821 820 819 817 816 814 813
829 829 830 831 831 832 833 833 834 834 834 834 834 835 835 835 835 835 835 835 836 835 835 835 835 836 837 837 837 838 838 839 839 839 839 838 838 838 838 838 838 838 838 839 839 839 840 840 840 840 840 840 839 839 838 837 837 835 834 833 833 833 833 833 832 832 832 831 830 829 828 827 825 824 823 823 822 822 821 821 819 818 816 815 813
827 827 828 830 832 832 833 833 833 833 833 833 833 833 834 834 833 833 833 833 833 833 833 833 833 833 834 835 835 836 836 836 837 837 837 837 836 836 837 837 837 837 837 837 838 838 838 839 839 839 839 839 838 837 837 836 835 834 833 832 832 832 832 832 832 832 831 831 830 829 828 827 826 825 824 823 823 822 822 821 820 818 817 815 814
826 826 827 829 831 833 833 833 833 833 832 832 832 832 832 832 832 832 832 831 831 831 832 832 832 832 832 832 833 833 834 834 834 835 836 836 835 835 835 835 836 836 836 836 836 837 837 837 838 838 837 837 837 837 836 835 834 833 833 832 832 832 832 831 831 831 831 831 830 829 828 828 827 825 824 823 823 823 822 821 820 819 818 816 815
826 826 826 827 828 830 831 831 831 831 831 831 831 830 830 830 830 830 831 831 830 830 829 830 830 830 829 830 830 831 831 832 832 833 834 835 835 834 834 834 834 834 835 835 835 836 836 836 836 837 836 836 836 836 836 835 834 833 832 832 832 831 831 831 831 831 831 830 830 829 828 828 827 826 825 824 823 823 823 822 821 820 818 817 815
826 826 826 827 828 829 829 829 828 828 829 829 829 829 829 828 828 829 830 830 829 829 828 827 828 828 828 827 828 829 829 830 830 830 832 834 834 833 833 833 833 833 833 834 834 834 835 835 835 835 835 835 835 835 835 834 833 832 832 831 832 831 831 831 831 830 830 830 830 829 828 828 827 826 825 824 823 823 823 822 821 820 819 817 816